[[{"header":{"parameterUnit":"m.s-1","parameterCategory":1,"la1":30.2991,"la2":30.254,"lo1":-89.0895,"lo2":-89.0444,"dy":0.0017,"dx":0.0017,"nx":28,"ny":28,"refTime":"2024-08-23T09:00:00:Z","depth":0,"parameterNumber":2,"parameterNumberName":"U-component_of_WINDS"},"data":[0,0,0,0,0,0,0,0,0,0,0,0,0,0,0,0,0,0,0,0,0,0,0,0,0,0,0,0,0,0,0,0,0,0,0,0,0,0,0,0,0,0,0,0,0,0,0,0,0,0,0,0,0,0,0,0,0,0,-4.7932,-4.7932,0,-4.7924,-4.7923,-4.7923,-4.7802,-4.7799,-4.7796,-4.7793,-4.7788,-4.7791,-4.7793,0,0,0,0,0,0,0,0,0,0,0,0,0,-4.7849,-4.7852,-4.7932,-4.7932,-4.7932,-4.7924,-4.7923,-4.7923,-4.7803,-4.7799,-4.7795,-4.7792,-4.7787,-4.779,-4.7794,0,0,0,0,0,0,0,0,0,0,0,0,0,-4.7868,-4.7852,-4.7932,-4.7871,-4.7865,-4.7924,-4.7923,-4.7923,-4.7804,-4.7799,-4.7794,-4.779,-4.7786,-4.779,-4.7794,-4.7912,0,0,-4.7807,-4.7808,0,0,0,0,0,0,0,0,-4.7867,-4.7871,-4.788,-4.7875,-4.7869,-4.7859,-4.7892,-4.792,-4.7805,-4.7827,-4.7793,-4.7788,-4.7816,-4.7817,-4.7826,-4.7911,-4.7911,-4.7807,-4.7809,-4.7811,-4.7812,0,0,0,0,0,0,0,-4.7866,-4.7871,-4.7929,-4.788,-4.7874,-4.7845,-4.7843,-4.7897,-4.7848,-4.7825,-4.7816,-4.7817,-4.7812,-4.7822,-4.7825,-4.7911,-4.7807,-4.781,-4.7813,-4.7815,-4.8096,-4.8101,0,0,0,0,0,0,-4.7872,-4.787,-4.7929,-4.7929,-4.7856,-4.7851,-4.7848,-4.7867,-4.7847,-4.7839,-4.7821,-4.7811,-4.7817,-4.782,-4.7824,-4.7962,-4.7811,-4.7815,-4.7817,-4.8091,-4.8097,-4.8102,0,0,0,0,0,0,-4.7871,-4.7879,-4.793,-4.7897,-4.7901,-4.7857,-4.788,-4.7869,-4.7879,-4.7843,-4.7834,-4.784,-4.7814,-4.7818,-4.7891,-4.796,-4.7817,-4.782,-4.8085,-4.8093,-4.81,-4.8239,0,0,0,0,0,0,-4.7869,-4.7879,-4.7922,-4.7899,-4.7904,-4.7996,-4.7884,-4.7873,-4.7886,-4.7874,-4.7859,-4.7852,-4.781,-4.7886,-4.7895,-4.7963,-4.7824,-4.8079,-4.8088,-4.8097,-4.8228,-4.8251,-4.827,0,0,0,0,0,-4.7867,-4.7962,-4.7925,-4.7933,-4.7956,-4.8,-4.8003,-4.7952,-4.7892,-4.7936,-4.7913,-4.7852,-4.7951,-4.7894,-4.7904,-4.7974,-4.8074,-4.8086,-4.8097,-4.8219,-4.8246,-4.8269,0,0,0,0,0,0,-4.7995,-4.7958,-4.7916,-4.8006,-4.8007,-4.7979,-4.8033,-4.7982,-4.8001,-4.7988,-4.7926,-4.7923,-4.8007,-4.7997,-4.7935,-4.8089,-4.8002,-4.8016,-4.8092,-4.8117,-4.8138,-4.8139,-4.7827,0,0,0,0,0,-4.8034,-4.8071,-4.8037,-4.812,-4.8122,-4.8078,-4.8095,-4.8056,-4.8055,-4.8055,-4.8037,-4.804,-4.8071,-4.8093,-4.812,-4.8226,-4.8223,-4.8279,-4.83,-4.8317,-4.8331,-4.8389,-4.8415,-4.814,-4.8139,-4.8139,0,0,-4.8114,-4.8098,-4.8126,-4.8145,-4.8141,-4.8183,-4.8079,-4.8127,-4.8159,-4.8063,-4.8131,-4.8118,-4.8117,-4.8207,-4.8246,-4.8202,-4.8406,-4.8332,-4.8346,-4.835,-4.8403,-4.8429,-4.8452,-4.8147,-4.8146,-4.8145,0,0,-4.8283,-4.8274,-4.8343,-4.8341,-4.8336,-4.8307,-4.8324,-4.8304,-4.8292,-4.8359,-4.8289,-4.8325,-4.838,-4.8383,-4.8392,-4.8564,-4.851,-4.8574,-4.8683,-4.8741,-4.8763,-4.8781,-4.8845,-4.8869,-4.8587,-4.8588,-4.8588,0,-4.8384,-4.8443,-4.8385,-4.8439,-4.8451,-4.8365,-4.8436,-4.8438,-4.8443,-4.8454,-4.8404,-4.8473,-4.8465,-4.8557,-4.8599,-4.8608,-4.8627,-4.8576,-4.8764,-4.8782,-4.8799,-4.8859,-4.8883,-4.8596,-4.8595,-4.8594,-4.8593,0,-4.8569,-4.8611,-4.8668,-4.8675,-4.8693,-4.8755,-4.8708,-4.8734,-4.8694,-4.867,-4.8741,-4.873,-4.8754,-4.8772,-4.8734,-4.886,-4.8833,-4.8774,-4.8686,-4.8834,-4.889,-4.8913,-4.8607,-4.8604,-4.8602,-4.86,0,0,-4.8818,-4.8793,-4.8815,-4.8818,-4.8807,-4.884,-4.8899,-4.8922,-4.8946,-4.8953,-4.9003,-4.9052,-4.8999,-4.9009,-4.897,-4.902,-4.9161,-4.8956,-4.8955,-4.8996,-4.9302,-4.9348,-4.9375,-4.9124,-4.9128,-4.9131,-4.9303,0,-4.8983,-4.9081,-4.9032,-4.9138,-4.9178,-4.9098,-4.915,-4.915,-4.913,-4.9163,-4.914,-4.9177,-4.9103,-4.9109,-4.9154,-4.9134,-4.9222,-4.912,-4.9173,-4.9175,-4.9177,-4.9404,-4.9452,-4.9614,-4.9324,-4.9328,-4.933,0,-4.9187,-4.9203,-4.9313,-4.9297,-4.9312,-4.9359,-4.9378,-4.9409,-4.9408,-4.939,-4.9403,-4.9353,-4.9412,-4.9324,-4.9406,-4.9339,-4.9357,-4.9351,-4.9356,-4.936,-4.9263,-4.9417,-4.9664,-4.969,-4.9364,-4.9361,-4.9359,0,-4.9362,-4.941,-4.9482,-4.9487,-4.9469,-4.9505,-4.95,-4.9494,-4.9512,-4.9529,-4.954,-4.9564,-4.9578,-4.9598,-4.9557,-4.9496,-4.9647,-4.9554,-4.9636,-4.9637,-4.9672,-4.9671,-4.9929,-4.9681,-4.9681,-4.968,-4.968,0,-4.9552,-4.9623,-4.956,-4.9605,-4.9683,-4.9627,-4.9706,-4.9692,-4.9689,-4.9731,-4.9663,-4.9705,-4.9647,-4.9683,-4.9651,-4.9727,-4.9733,-4.9722,-4.9713,-4.9729,-4.9731,-4.9742,-4.973,-4.9687,-4.9685,-4.9684,-4.9683,0,-4.976,-4.972,-4.9795,-4.9772,-4.9768,-4.9827,-4.9809,-4.9851,-4.9826,-4.9881,-4.989,-4.9853,-4.9892,-4.9853,-4.989,-4.9869,-4.997,-4.9944,-4.997,-4.9964,-5.0048,-5.0042,-5.0324,-5.0359,-5.0087,-5.0089,-5.0092,0,-4.9885,-4.9937,-4.9921,-4.9944,-4.9943,-4.9981,-4.9998,-4.9946,-4.9967,-4.9972,-5.0015,-5.0048,-5.0073,-5.0141,-5.0118,-5.0147,-5.0122,-5.0219,-5.0126,-5.0142,-5.0127,-5.0125,-5.0131,-5.0238,-5.0242,-5.0244,-5.0246,0,-5.0111,-5.009,-5.0117,-5.014,-5.0163,-5.0178,-5.0188,-5.0211,-5.0157,-5.0185,-5.0225,-5.0244,-5.0282,-5.0318,-5.034,-5.0336,-5.0285,-5.0276,-5.0296,-5.0315,-5.0329,-5.0325,-5.0024,-5.027,-5.0267,-5.0266,-5.0264,-5.0263,-5.0283,-5.0327,-5.0323,-5.0357,-5.0359,-5.037,-5.0409,-5.039,-5.0421,-5.0448,-5.0415,-5.0465,-5.0466,-5.049,-5.0493,-5.0532,-5.0492,-5.0521,-5.0529,-5.0538,-5.0552,-5.0321,-5.0536,-5.0535,-5.0535,-5.0534,-5.0533,0,-5.0508,-5.0502,-5.0534,-5.055,-5.0578,-5.0524,-5.0533,-5.056,-5.0604,-5.0609,-5.0634,-5.0682,-5.0716,-5.0697,-5.0727,-5.0763,-5.074,-5.0773,-5.0771,-5.0772,-5.0585,-5.0565,-5.0791,-5.0791,-5.0791,-5.0791,-5.0791,-5.0791,-5.0629,-5.0702,-5.068,-5.0754,-5.0747,-5.0795,-5.0805,-5.0816,-5.082,-5.0875,-5.0903,-5.089,-5.0885,-5.0915,-5.0946,-5.0939,-5.0955,-5.0998,-5.0983,-5.0809,-5.0784,-5.076,-5.0741,-5.1001,-5.1001,-5.1166,-5.1168,-5.1169]},{"header":{"parameterUnit":"m.s-1","parameterCategory":1,"la1":30.2991,"la2":30.254,"lo1":-89.0895,"lo2":-89.0444,"dy":0.0017,"dx":0.0017,"nx":28,"ny":28,"refTime":"2024-08-23T09:00:00:Z","depth":0,"parameterNumber":3,"parameterNumberName":"V-component_of_WINDS"},"data":[0,0,0,0,0,0,0,0,0,0,0,0,0,0,0,0,0,0,0,0,0,0,0,0,0,0,0,0,0,0,0,0,0,0,0,0,0,0,0,0,0,0,0,0,0,0,0,0,0,0,0,0,0,0,0,0,0,0,-0.4263,-0.4264,0,-0.4329,-0.4329,-0.433,-0.4322,-0.4321,-0.432,-0.4319,-0.4392,-0.4395,-0.4398,0,0,0,0,0,0,0,0,0,0,0,0,0,-0.4135,-0.4138,-0.4263,-0.4264,-0.4264,-0.4329,-0.4329,-0.433,-0.4323,-0.4321,-0.432,-0.4319,-0.4391,-0.4395,-0.4398,0,0,0,0,0,0,0,0,0,0,0,0,0,-0.4195,-0.4138,-0.4263,-0.4268,-0.4269,-0.4328,-0.4329,-0.4331,-0.4323,-0.4321,-0.432,-0.4318,-0.439,-0.4394,-0.4399,-0.4458,0,0,-0.4412,-0.4414,0,0,0,0,0,0,0,0,-0.4192,-0.42,-0.4267,-0.4268,-0.4269,-0.4316,-0.4311,-0.4374,-0.4323,-0.4303,-0.4319,-0.4317,-0.4368,-0.4375,-0.4391,-0.4462,-0.4465,-0.4413,-0.4415,-0.4417,-0.4419,0,0,0,0,0,0,0,-0.4187,-0.4197,-0.4289,-0.4268,-0.4269,-0.4269,-0.4276,-0.4323,-0.4344,-0.4304,-0.4304,-0.4312,-0.4369,-0.4386,-0.4392,-0.4466,-0.4413,-0.4417,-0.4419,-0.4421,-0.459,-0.4592,0,0,0,0,0,0,-0.4181,-0.4193,-0.4287,-0.4291,-0.4225,-0.4272,-0.428,-0.4302,-0.4343,-0.4348,-0.4313,-0.4311,-0.438,-0.4387,-0.4395,-0.4469,-0.4417,-0.4421,-0.4424,-0.4589,-0.4591,-0.4593,0,0,0,0,0,0,-0.4178,-0.419,-0.4284,-0.4242,-0.4254,-0.4276,-0.4302,-0.4305,-0.4322,-0.435,-0.4354,-0.4327,-0.4379,-0.4389,-0.4442,-0.4471,-0.4423,-0.4427,-0.4586,-0.4589,-0.4592,-0.4616,0,0,0,0,0,0,-0.4175,-0.4189,-0.4211,-0.4243,-0.4256,-0.433,-0.4303,-0.4307,-0.4329,-0.4327,-0.4364,-0.4368,-0.4378,-0.4436,-0.4447,-0.4476,-0.4431,-0.4584,-0.4588,-0.4591,-0.4613,-0.4619,-0.4625,0,0,0,0,0,-0.417,-0.4216,-0.4212,-0.4223,-0.4284,-0.4331,-0.4339,-0.4348,-0.4331,-0.4354,-0.4372,-0.4367,-0.4465,-0.4441,-0.4454,-0.4485,-0.4582,-0.4587,-0.4591,-0.461,-0.4618,-0.4625,0,0,0,0,0,0,-0.4189,-0.422,-0.4216,-0.4273,-0.4299,-0.433,-0.4359,-0.4356,-0.4389,-0.4386,-0.4397,-0.4406,-0.446,-0.4478,-0.445,-0.4545,-0.4522,-0.4529,-0.4533,-0.454,-0.4546,-0.4542,-0.4435,0,0,0,0,0,-0.4199,-0.4233,-0.4259,-0.4307,-0.432,-0.4337,-0.4358,-0.4362,-0.4391,-0.4403,-0.4424,-0.4454,-0.4491,-0.4516,-0.4552,-0.4614,-0.4623,-0.4642,-0.4648,-0.4652,-0.4659,-0.4695,-0.4704,-0.4607,-0.4607,-0.4606,0,0,-0.4222,-0.4243,-0.4264,-0.4311,-0.4332,-0.4369,-0.4347,-0.4387,-0.4415,-0.4409,-0.4462,-0.4478,-0.4512,-0.457,-0.4597,-0.4587,-0.4688,-0.4658,-0.4661,-0.4666,-0.47,-0.471,-0.4718,-0.4609,-0.4609,-0.4608,0,0,-0.4282,-0.43,-0.4343,-0.4364,-0.4395,-0.4406,-0.4416,-0.4446,-0.4457,-0.4509,-0.4506,-0.454,-0.4603,-0.4628,-0.4649,-0.4717,-0.4715,-0.4728,-0.4761,-0.4796,-0.4803,-0.481,-0.4837,-0.4846,-0.4734,-0.4734,-0.4734,0,-0.4307,-0.4361,-0.4366,-0.4406,-0.4428,-0.4421,-0.4465,-0.4486,-0.4528,-0.4544,-0.453,-0.461,-0.4632,-0.4697,-0.4714,-0.473,-0.4744,-0.4726,-0.4801,-0.4808,-0.4815,-0.4841,-0.4851,-0.4736,-0.4736,-0.4735,-0.4735,0,-0.4392,-0.4429,-0.446,-0.4499,-0.4523,-0.4565,-0.4578,-0.4602,-0.4603,-0.4616,-0.467,-0.4695,-0.4737,-0.4752,-0.4754,-0.4817,-0.481,-0.4798,-0.4776,-0.4826,-0.4851,-0.486,-0.4738,-0.4738,-0.4737,-0.4737,0,0,-0.4469,-0.4508,-0.452,-0.4538,-0.4571,-0.4601,-0.4642,-0.4681,-0.4703,-0.4731,-0.4769,-0.4822,-0.4811,-0.4835,-0.484,-0.4869,-0.4924,-0.4855,-0.4856,-0.4869,-0.4998,-0.5009,-0.5021,-0.4921,-0.4923,-0.4925,-0.4997,0,-0.4535,-0.4608,-0.4613,-0.4679,-0.4715,-0.4708,-0.4745,-0.477,-0.4783,-0.4816,-0.483,-0.4869,-0.485,-0.4865,-0.4894,-0.4912,-0.4951,-0.4906,-0.4959,-0.4961,-0.4954,-0.5033,-0.5045,-0.5112,-0.5006,-0.5008,-0.5009,0,-0.4623,-0.4652,-0.4722,-0.475,-0.4766,-0.4798,-0.4835,-0.4865,-0.4894,-0.4901,-0.4926,-0.4926,-0.4971,-0.4944,-0.5007,-0.4976,-0.4998,-0.5009,-0.5012,-0.5021,-0.4991,-0.5047,-0.5133,-0.5144,-0.5023,-0.5022,-0.5021,0,-0.4676,-0.4733,-0.4783,-0.4798,-0.4831,-0.4854,-0.487,-0.4896,-0.4919,-0.495,-0.4966,-0.5002,-0.5024,-0.5053,-0.5064,-0.5042,-0.5127,-0.51,-0.5137,-0.5137,-0.5159,-0.5158,-0.5253,-0.5166,-0.5166,-0.5166,-0.5166,0,-0.4752,-0.4796,-0.4807,-0.4838,-0.4887,-0.4892,-0.4941,-0.4955,-0.4978,-0.5013,-0.5009,-0.5042,-0.5052,-0.5087,-0.5096,-0.5148,-0.5157,-0.5166,-0.5169,-0.5169,-0.5168,-0.5186,-0.5183,-0.5169,-0.5168,-0.5168,-0.5167,0,-0.4821,-0.483,-0.4884,-0.491,-0.4917,-0.4953,-0.4976,-0.5007,-0.5017,-0.5061,-0.5072,-0.5089,-0.513,-0.5143,-0.5193,-0.5198,-0.5261,-0.5257,-0.5251,-0.5253,-0.529,-0.5287,-0.5403,-0.5419,-0.5318,-0.5319,-0.532,0,-0.4871,-0.4904,-0.4933,-0.4955,-0.4971,-0.5006,-0.5029,-0.5034,-0.5059,-0.5093,-0.512,-0.516,-0.5193,-0.5259,-0.5278,-0.5316,-0.5316,-0.5353,-0.5322,-0.5321,-0.532,-0.532,-0.5324,-0.5361,-0.5362,-0.5363,-0.5363,0,-0.4958,-0.4961,-0.4993,-0.5027,-0.5054,-0.5081,-0.5107,-0.5126,-0.5135,-0.5163,-0.5204,-0.5229,-0.5279,-0.532,-0.5359,-0.5376,-0.5373,-0.5372,-0.5383,-0.5386,-0.5382,-0.5388,-0.5271,-0.5371,-0.537,-0.5369,-0.5369,-0.5369,-0.5022,-0.5052,-0.5076,-0.5113,-0.5132,-0.5157,-0.5187,-0.52,-0.5234,-0.5274,-0.5275,-0.532,-0.5348,-0.5399,-0.5418,-0.5455,-0.5445,-0.546,-0.5465,-0.5469,-0.5474,-0.5373,-0.5462,-0.5461,-0.5461,-0.5461,-0.5461,0,-0.5112,-0.5127,-0.516,-0.5196,-0.5225,-0.5215,-0.5243,-0.5269,-0.5308,-0.5333,-0.5365,-0.5413,-0.5452,-0.5472,-0.5511,-0.5537,-0.5537,-0.5548,-0.5548,-0.5553,-0.5479,-0.5467,-0.5548,-0.5548,-0.5547,-0.5547,-0.5547,-0.5547,-0.5163,-0.5213,-0.5218,-0.5279,-0.5294,-0.5337,-0.5354,-0.5377,-0.5397,-0.545,-0.5482,-0.5494,-0.5518,-0.5559,-0.5595,-0.56,-0.5616,-0.5629,-0.5634,-0.5566,-0.5557,-0.5549,-0.5538,-0.5632,-0.5632,-0.5704,-0.5705,-0.5705]}]]